Time,TemperatureF,DewpointF,PressureIn,WindDirection,WindDirectionDegrees,WindSpeedMPH,WindSpeedGustMPH,Humidity,HourlyPrecipIn,Conditions,Clouds,dailyrainin,SoftwareType,DateUTC
2013-07-25 00:00:00,57.7,54.2,29.99,ESE,117,0.0,0.0,88,0.00,,FEW250,0.00,VWS V14.01,2013-07-25 05:00:00,
2013-07-25 00:01:00,57.6,54.1,29.99,ESE,117,0.0,0.0,88,0.00,,CLR,0.00,VWS V14.01,2013-07-25 05:01:00,
2013-07-25 00:05:00,57.6,54.1,29.99,SSW,199,0.0,0.0,88,0.00,,FEW250,0.00,VWS V14.01,2013-07-25 05:05:00,
2013-07-25 00:06:00,57.5,54.0,29.99,North,360,0.0,0.0,88,0.00,,CLR,0.00,VWS V14.01,2013-07-25 05:06:00,
2013-07-25 00:10:00,57.3,54.1,29.99,SW,216,0.0,0.0,89,0.00,,FEW250,0.00,VWS V14.01,2013-07-25 05:10:00,
2013-07-25 00:11:00,57.3,54.1,29.99,SW,216,0.0,0.0,89,0.00,,CLR,0.00,VWS V14.01,2013-07-25 05:11:00,
2013-07-25 00:15:00,57.2,54.0,29.99,SW,218,0.0,1.0,89,0.00,,FEW250,0.00,VWS V14.01,2013-07-25 05:15:00,
2013-07-25 00:16:00,57.1,53.9,29.99,SW,218,0.0,1.0,89,0.00,,CLR,0.00,VWS V14.01,2013-07-25 05:16:00,
2013-07-25 00:20:00,57.0,54.1,29.99,SW,218,0.0,0.0,90,0.00,,FEW250,0.00,VWS V14.01,2013-07-25 05:20:00,
2013-07-25 00:22:00,57.0,54.1,29.99,SW,218,0.0,0.0,90,0.00,,CLR,0.00,VWS V14.01,2013-07-25 05:22:00,
2013-07-25 00:25:00,57.0,54.1,29.99,SW,218,0.0,0.0,90,0.00,,FEW250,0.00,VWS V14.01,2013-07-25 05:25:00,
2013-07-25 00:27:00,57.0,54.1,29.99,SW,218,0.0,0.0,90,0.00,,CLR,0.00,VWS V14.01,2013-07-25 05:27:00,
2013-07-25 00:30:00,57.0,53.8,29.99,SW,218,0.0,0.0,89,0.00,,FEW250,0.00,VWS V14.01,2013-07-25 05:30:00,
2013-07-25 00:32:00,57.0,53.8,29.99,SW,218,0.0,0.0,89,0.00,,CLR,0.00,VWS V14.01,2013-07-25 05:32:00,
2013-07-25 00:35:00,57.1,53.9,29.99,SW,218,0.0,0.0,89,0.00,,FEW250,0.00,VWS V14.01,2013-07-25 05:35:00,
2013-07-25 00:37:00,57.0,53.8,29.99,SW,218,0.0,0.0,89,0.00,,CLR,0.00,VWS V14.01,2013-07-25 05:37:00,
2013-07-25 00:40:00,56.9,53.7,29.99,SW,218,0.0,0.0,89,0.00,,FEW250,0.00,VWS V14.01,2013-07-25 05:40:00,
2013-07-25 00:42:00,56.9,53.4,29.99,SW,218,0.0,0.0,88,0.00,,CLR,0.00,VWS V14.01,2013-07-25 05:42:00,
2013-07-25 00:45:00,56.9,53.4,29.99,SW,218,0.0,0.0,88,0.00,,FEW250,0.00,VWS V14.01,2013-07-25 05:45:00,
2013-07-25 00:47:00,56.8,53.3,29.99,SW,218,0.0,0.0,88,0.00,,CLR,0.00,VWS V14.01,2013-07-25 05:47:00,
2013-07-25 00:50:00,56.8,53.0,29.99,SW,218,0.0,0.0,87,0.00,,FEW250,0.00,VWS V14.01,2013-07-25 05:50:00,
2013-07-25 00:52:00,56.8,53.0,29.99,SW,218,0.0,0.0,87,0.00,,CLR,0.00,VWS V14.01,2013-07-25 05:52:00,
2013-07-25 00:55:00,56.8,53.0,29.99,SW,218,0.0,0.0,87,0.00,,FEW250,0.00,VWS V14.01,2013-07-25 05:55:00,
2013-07-25 00:57:00,56.8,53.0,29.99,SW,218,0.0,0.0,87,0.00,,CLR,0.00,VWS V14.01,2013-07-25 05:57:00,
2013-07-25 01:00:00,56.8,53.0,29.99,SW,218,0.0,0.0,87,0.00,,FEW250,0.00,VWS V14.01,2013-07-25 06:00:00,
2013-07-25 01:02:00,56.8,53.0,29.99,SW,218,0.0,1.0,87,0.00,,CLR,0.00,VWS V14.01,2013-07-25 06:02:00,
2013-07-25 01:05:00,56.7,52.6,29.99,SW,218,0.0,0.0,86,0.00,,FEW250,0.00,VWS V14.01,2013-07-25 06:05:00,
2013-07-25 01:07:00,56.7,52.6,29.99,SW,218,0.0,0.0,86,0.00,,CLR,0.00,VWS V14.01,2013-07-25 06:07:00,
2013-07-25 01:10:00,56.7,52.6,29.99,SW,218,0.0,0.0,86,0.00,,FEW250,0.00,VWS V14.01,2013-07-25 06:10:00,
2013-07-25 01:12:00,56.6,52.5,29.99,SW,218,0.0,0.0,86,0.00,,CLR,0.00,VWS V14.01,2013-07-25 06:12:00,
2013-07-25 01:15:00,56.6,52.5,29.99,SW,218,0.0,0.0,86,0.00,,FEW250,0.00,VWS V14.01,2013-07-25 06:15:00,
2013-07-25 01:17:00,56.5,52.4,29.99,SW,218,0.0,0.0,86,0.00,,CLR,0.00,VWS V14.01,2013-07-25 06:17:00,
2013-07-25 01:20:00,56.5,52.4,29.99,SW,218,0.0,0.0,86,0.00,,FEW250,0.00,VWS V14.01,2013-07-25 06:20:00,
2013-07-25 01:22:00,56.4,52.3,29.99,SW,218,0.0,0.0,86,0.00,,CLR,0.00,VWS V14.01,2013-07-25 06:22:00,
2013-07-25 01:25:00,56.4,52.3,29.98,SW,218,0.0,0.0,86,0.00,,FEW250,0.00,VWS V14.01,2013-07-25 06:25:00,
2013-07-25 01:27:00,56.4,52.3,29.98,SW,218,0.0,0.0,86,0.00,,CLR,0.00,VWS V14.01,2013-07-25 06:27:00,
2013-07-25 01:30:00,56.3,52.2,29.98,SW,218,0.0,0.0,86,0.00,,FEW250,0.00,VWS V14.01,2013-07-25 06:30:00,
2013-07-25 01:33:00,56.3,52.2,29.98,SW,218,0.0,0.0,86,0.00,,CLR,0.00,VWS V14.01,2013-07-25 06:33:00,
2013-07-25 01:35:00,56.3,52.2,29.98,SW,218,0.0,0.0,86,0.00,,FEW250,0.00,VWS V14.01,2013-07-25 06:35:00,
2013-07-25 01:38:00,56.2,52.1,29.98,SW,218,0.0,0.0,86,0.00,,CLR,0.00,VWS V14.01,2013-07-25 06:38:00,
2013-07-25 01:40:00,56.2,52.1,29.98,SW,218,0.0,0.0,86,0.00,,FEW250,0.00,VWS V14.01,2013-07-25 06:40:00,
2013-07-25 01:43:00,56.2,52.4,29.98,SW,218,0.0,0.0,87,0.00,,CLR,0.00,VWS V14.01,2013-07-25 06:43:00,
2013-07-25 01:45:00,56.2,52.4,29.98,SW,218,0.0,0.0,87,0.00,,FEW250,0.00,VWS V14.01,2013-07-25 06:45:00,
2013-07-25 01:48:00,56.2,52.4,29.98,SW,218,0.0,0.0,87,0.00,,CLR,0.00,VWS V14.01,2013-07-25 06:48:00,
2013-07-25 01:50:00,56.2,52.1,29.98,SW,218,0.0,0.0,86,0.00,,FEW250,0.00,VWS V14.01,2013-07-25 06:50:00,
2013-07-25 01:53:00,56.3,52.2,29.97,SW,218,0.0,0.0,86,0.00,,CLR,0.00,VWS V14.01,2013-07-25 06:53:00,
2013-07-25 01:55:00,56.3,52.2,29.97,SW,218,0.0,0.0,86,0.00,,FEW250,0.00,VWS V14.01,2013-07-25 06:55:00,
2013-07-25 01:58:00,56.4,52.3,29.97,SW,218,0.0,0.0,86,0.00,,CLR,0.00,VWS V14.01,2013-07-25 06:58:00,
2013-07-25 02:00:00,56.4,52.3,29.97,SW,218,0.0,0.0,86,0.00,,FEW250,0.00,VWS V14.01,2013-07-25 07:00:00,
2013-07-25 02:03:00,56.4,52.0,29.97,SW,218,0.0,0.0,85,0.00,,CLR,0.00,VWS V14.01,2013-07-25 07:03:00,
2013-07-25 02:05:00,56.4,52.0,29.97,SW,218,0.0,0.0,85,0.00,,FEW250,0.00,VWS V14.01,2013-07-25 07:05:00,
2013-07-25 02:08:00,56.5,52.4,29.97,SW,218,0.0,0.0,86,0.00,,CLR,0.00,VWS V14.01,2013-07-25 07:08:00,
2013-07-25 02:10:00,56.5,52.4,29.97,SW,218,0.0,0.0,86,0.00,,FEW250,0.00,VWS V14.01,2013-07-25 07:10:00,
2013-07-25 02:13:00,56.5,52.4,29.97,SW,218,0.0,1.0,86,0.00,,CLR,0.00,VWS V14.01,2013-07-25 07:13:00,
2013-07-25 02:15:00,56.5,52.4,29.97,SW,218,0.0,1.0,86,0.00,,FEW250,0.00,VWS V14.01,2013-07-25 07:15:00,
2013-07-25 02:18:00,56.5,52.4,29.97,SW,218,0.0,0.0,86,0.00,,CLR,0.00,VWS V14.01,2013-07-25 07:18:00,
2013-07-25 02:20:00,56.5,52.4,29.97,SW,218,0.0,0.0,86,0.00,,FEW250,0.00,VWS V14.01,2013-07-25 07:20:00,
2013-07-25 02:23:00,56.4,52.3,29.97,SW,218,0.0,0.0,86,0.00,,CLR,0.00,VWS V14.01,2013-07-25 07:23:00,
2013-07-25 02:25:00,56.4,52.6,29.97,SW,218,0.0,0.0,87,0.00,,FEW250,0.00,VWS V14.01,2013-07-25 07:25:00,
2013-07-25 02:28:00,56.3,52.5,29.98,SW,218,0.0,0.0,87,0.00,,CLR,0.00,VWS V14.01,2013-07-25 07:28:00,
2013-07-25 02:30:00,56.2,52.4,29.98,SW,218,0.0,0.0,87,0.00,,FEW250,0.00,VWS V14.01,2013-07-25 07:30:00,
2013-07-25 02:33:00,56.2,52.1,29.97,SW,218,0.0,0.0,86,0.00,,CLR,0.00,VWS V14.01,2013-07-25 07:33:00,
2013-07-25 02:35:00,56.2,52.1,29.97,SW,218,0.0,0.0,86,0.00,,FEW250,0.00,VWS V14.01,2013-07-25 07:35:00,
2013-07-25 02:39:00,56.1,52.3,29.98,SW,218,0.0,0.0,87,0.00,,CLR,0.00,VWS V14.01,2013-07-25 07:39:00,
2013-07-25 02:40:00,56.1,52.3,29.98,SW,218,0.0,0.0,87,0.00,,FEW250,0.00,VWS V14.01,2013-07-25 07:40:00,
2013-07-25 02:44:00,56.0,52.2,29.97,SW,218,0.0,0.0,87,0.00,,CLR,0.00,VWS V14.01,2013-07-25 07:44:00,
2013-07-25 02:45:00,56.0,52.2,29.97,SW,218,0.0,0.0,87,0.00,,FEW250,0.00,VWS V14.01,2013-07-25 07:45:00,
2013-07-25 02:49:00,55.9,52.1,29.97,WSW,249,0.0,2.0,87,0.00,,CLR,0.00,VWS V14.01,2013-07-25 07:49:00,
2013-07-25 02:50:00,55.8,52.0,29.97,WSW,249,0.0,2.0,87,0.00,,FEW250,0.00,VWS V14.01,2013-07-25 07:50:00,
2013-07-25 02:54:00,55.7,52.2,29.97,WSW,257,0.0,2.0,88,0.00,,CLR,0.00,VWS V14.01,2013-07-25 07:54:00,
2013-07-25 02:55:00,55.7,52.2,29.97,WSW,257,0.0,2.0,88,0.00,,FEW250,0.00,VWS V14.01,2013-07-25 07:55:00,
2013-07-25 02:59:00,55.6,52.1,29.97,WSW,257,0.0,0.0,88,0.00,,CLR,0.00,VWS V14.01,2013-07-25 07:59:00,
2013-07-25 03:00:00,55.6,52.1,29.97,WSW,257,0.0,0.0,88,0.00,,FEW250,0.00,VWS V14.01,2013-07-25 08:00:00,
2013-07-25 03:04:00,55.6,52.1,29.97,WSW,257,0.0,0.0,88,0.00,,CLR,0.00,VWS V14.01,2013-07-25 08:04:00,
2013-07-25 03:05:00,55.5,52.0,29.98,WSW,257,0.0,0.0,88,0.00,,FEW250,0.00,VWS V14.01,2013-07-25 08:05:00,
2013-07-25 03:09:00,55.5,52.3,29.98,WSW,257,0.0,1.0,89,0.00,,CLR,0.00,VWS V14.01,2013-07-25 08:09:00,
2013-07-25 03:10:00,55.5,52.3,29.98,WSW,257,0.0,1.0,89,0.00,,FEW250,0.00,VWS V14.01,2013-07-25 08:10:00,
2013-07-25 03:14:00,55.4,52.2,29.98,WSW,257,0.0,1.0,89,0.00,,CLR,0.00,VWS V14.01,2013-07-25 08:14:00,
2013-07-25 03:15:00,55.4,52.2,29.98,WSW,257,0.0,1.0,89,0.00,,FEW250,0.00,VWS V14.01,2013-07-25 08:15:00,
2013-07-25 03:19:00,55.4,52.2,29.98,WSW,257,0.0,1.0,89,0.00,,CLR,0.00,VWS V14.01,2013-07-25 08:19:00,
2013-07-25 03:20:00,55.4,52.2,29.98,WSW,257,0.0,1.0,89,0.00,,FEW250,0.00,VWS V14.01,2013-07-25 08:20:00,
2013-07-25 03:24:00,55.3,51.8,29.98,WSW,258,0.0,0.0,88,0.00,,CLR,0.00,VWS V14.01,2013-07-25 08:24:00,
2013-07-25 03:25:00,55.3,51.8,29.98,WSW,258,0.0,0.0,88,0.00,,FEW250,0.00,VWS V14.01,2013-07-25 08:25:00,
2013-07-25 03:29:00,55.1,51.6,29.98,WSW,258,0.0,1.0,88,0.00,,CLR,0.00,VWS V14.01,2013-07-25 08:29:00,
2013-07-25 03:30:00,55.1,51.6,29.98,WSW,258,0.0,1.0,88,0.00,,FEW250,0.00,VWS V14.01,2013-07-25 08:30:00,
2013-07-25 03:34:00,55.0,51.5,29.98,WSW,257,0.0,0.0,88,0.00,,CLR,0.00,VWS V14.01,2013-07-25 08:34:00,
2013-07-25 03:35:00,55.0,51.5,29.98,WSW,257,0.0,0.0,88,0.00,,FEW250,0.00,VWS V14.01,2013-07-25 08:35:00,
2013-07-25 03:39:00,54.9,51.4,29.98,WSW,258,0.0,0.0,88,0.00,,CLR,0.00,VWS V14.01,2013-07-25 08:39:00,
2013-07-25 03:40:00,54.9,51.4,29.98,WSW,258,0.0,0.0,88,0.00,,FEW250,0.00,VWS V14.01,2013-07-25 08:40:00,
2013-07-25 03:44:00,55.0,51.5,29.98,WSW,257,0.0,0.0,88,0.00,,CLR,0.00,VWS V14.01,2013-07-25 08:44:00,
2013-07-25 03:45:00,55.0,51.5,29.98,WSW,257,0.0,0.0,88,0.00,,FEW250,0.00,VWS V14.01,2013-07-25 08:45:00,
2013-07-25 03:49:00,55.1,51.6,29.98,WSW,258,0.0,0.0,88,0.00,,CLR,0.00,VWS V14.01,2013-07-25 08:49:00,
2013-07-25 03:50:00,55.1,51.6,29.98,WSW,258,0.0,0.0,88,0.00,,FEW250,0.00,VWS V14.01,2013-07-25 08:50:00,
2013-07-25 03:54:00,55.1,51.6,29.98,WSW,257,0.0,0.0,88,0.00,,CLR,0.00,VWS V14.01,2013-07-25 08:54:00,
2013-07-25 03:55:00,55.1,51.6,29.98,WSW,257,0.0,0.0,88,0.00,,FEW250,0.00,VWS V14.01,2013-07-25 08:55:00,
2013-07-25 03:59:00,55.0,51.5,29.98,WSW,257,0.0,1.0,88,0.00,,CLR,0.00,VWS V14.01,2013-07-25 08:59:00,
2013-07-25 04:00:00,55.0,51.5,29.98,WSW,257,0.0,1.0,88,0.00,,FEW250,0.00,VWS V14.01,2013-07-25 09:00:00,
2013-07-25 04:04:00,55.0,51.5,29.98,WSW,258,0.0,1.0,88,0.00,,CLR,0.00,VWS V14.01,2013-07-25 09:04:00,
2013-07-25 04:05:00,55.0,51.5,29.98,WSW,257,0.0,1.0,88,0.00,,FEW250,0.00,VWS V14.01,2013-07-25 09:05:00,
2013-07-25 04:09:00,54.9,51.4,29.98,WSW,257,0.0,2.0,88,0.00,,CLR,0.00,VWS V14.01,2013-07-25 09:09:00,
2013-07-25 04:10:00,55.0,51.5,29.98,WSW,257,0.0,2.0,88,0.00,,FEW250,0.00,VWS V14.01,2013-07-25 09:10:00,
2013-07-25 04:14:00,55.0,51.5,29.98,WSW,257,0.0,1.0,88,0.00,,CLR,0.00,VWS V14.01,2013-07-25 09:14:00,
2013-07-25 04:15:00,55.0,51.5,29.98,WSW,258,0.0,1.0,88,0.00,,FEW250,0.00,VWS V14.01,2013-07-25 09:15:00,
2013-07-25 04:20:00,54.9,51.4,29.98,WSW,257,0.0,0.0,88,0.00,,CLR,0.00,VWS V14.01,2013-07-25 09:20:00,
2013-07-25 04:25:00,54.8,51.3,29.98,WSW,258,0.0,1.0,88,0.00,,CLR,0.00,VWS V14.01,2013-07-25 09:25:00,
2013-07-25 04:30:00,54.6,51.4,29.99,WSW,258,0.0,1.0,89,0.00,,CLR,0.00,VWS V14.01,2013-07-25 09:30:00,
2013-07-25 04:35:00,54.5,51.3,29.99,WSW,257,0.0,1.0,89,0.00,,CLR,0.00,VWS V14.01,2013-07-25 09:35:00,
2013-07-25 04:40:00,54.5,51.3,29.99,WSW,258,0.0,1.0,89,0.00,,CLR,0.00,VWS V14.01,2013-07-25 09:40:00,
2013-07-25 04:45:00,54.4,50.9,29.99,WSW,257,0.0,0.0,88,0.00,,CLR,0.00,VWS V14.01,2013-07-25 09:45:00,
2013-07-25 04:50:00,54.4,50.9,29.99,WSW,257,0.0,1.0,88,0.00,,CLR,0.00,VWS V14.01,2013-07-25 09:50:00,
2013-07-25 04:55:00,54.3,50.8,29.99,WSW,258,0.0,2.0,88,0.00,,CLR,0.00,VWS V14.01,2013-07-25 09:55:00,
2013-07-25 05:00:00,54.4,50.9,29.99,WSW,257,0.0,1.0,88,0.00,,FEW250,0.00,VWS V14.01,2013-07-25 10:00:00,
2013-07-25 05:05:00,54.4,50.9,29.99,West,259,0.0,0.0,88,0.00,,FEW250,0.00,VWS V14.01,2013-07-25 10:05:00,
2013-07-25 05:10:00,54.5,51.0,30.00,West,259,0.0,1.0,88,0.00,,FEW250,0.00,VWS V14.01,2013-07-25 10:10:00,
2013-07-25 05:15:00,54.5,50.7,30.00,West,259,0.0,3.0,87,0.00,,FEW250,0.00,VWS V14.01,2013-07-25 10:15:00,
2013-07-25 05:20:00,54.6,50.8,30.00,West,259,0.0,1.0,87,0.00,,FEW250,0.00,VWS V14.01,2013-07-25 10:20:00,
2013-07-25 05:21:00,54.6,50.8,30.00,West,259,0.0,1.0,87,0.00,,FEW250,0.00,VWS V14.01,2013-07-25 10:21:00,
2013-07-25 05:25:00,54.6,50.8,30.00,WSW,257,0.0,2.0,87,0.00,,FEW250,0.00,VWS V14.01,2013-07-25 10:25:00,
2013-07-25 05:26:00,54.6,50.8,30.00,WSW,257,0.0,2.0,87,0.00,,FEW250,0.00,VWS V14.01,2013-07-25 10:26:00,
2013-07-25 05:30:00,54.7,50.9,30.00,West,259,0.0,0.0,87,0.00,,FEW250,0.00,VWS V14.01,2013-07-25 10:30:00,
2013-07-25 05:31:00,54.7,50.9,30.00,West,263,0.0,0.0,87,0.00,,FEW250,0.00,VWS V14.01,2013-07-25 10:31:00,
2013-07-25 05:35:00,54.8,51.0,30.00,West,270,0.0,3.0,87,0.00,,FEW250,0.00,VWS V14.01,2013-07-25 10:35:00,
2013-07-25 05:36:00,54.8,51.0,30.00,West,267,0.0,3.0,87,0.00,,FEW250,0.00,VWS V14.01,2013-07-25 10:36:00,
2013-07-25 05:40:00,54.9,50.8,30.00,West,260,0.0,5.0,86,0.00,,FEW250,0.00,VWS V14.01,2013-07-25 10:40:00,
2013-07-25 05:41:00,55.0,50.9,30.00,West,266,2.0,2.0,86,0.00,,FEW250,0.00,VWS V14.01,2013-07-25 10:41:00,
2013-07-25 05:45:00,55.0,50.9,30.00,WSW,257,0.0,2.0,86,0.00,,FEW250,0.00,VWS V14.01,2013-07-25 10:45:00,
2013-07-25 05:46:00,55.0,50.9,30.00,WSW,257,0.0,2.0,86,0.00,,FEW250,0.00,VWS V14.01,2013-07-25 10:46:00,
2013-07-25 05:50:00,54.9,50.8,30.00,West,261,0.0,2.0,86,0.00,,FEW250,0.00,VWS V14.01,2013-07-25 10:50:00,
2013-07-25 05:51:00,55.0,50.9,30.00,West,263,0.0,1.0,86,0.00,,FEW250,0.00,VWS V14.01,2013-07-25 10:51:00,
2013-07-25 05:55:00,55.0,50.9,30.00,West,270,0.0,4.0,86,0.00,,FEW250,0.00,VWS V14.01,2013-07-25 10:55:00,
2013-07-25 05:56:00,55.0,50.9,30.00,West,267,3.0,5.0,86,0.00,,FEW250,0.00,VWS V14.01,2013-07-25 10:56:00,
2013-07-25 06:00:00,55.1,51.0,30.00,West,266,0.0,5.0,86,0.00,,FEW250,0.00,VWS V14.01,2013-07-25 11:00:00,
2013-07-25 06:01:00,55.1,51.0,30.00,West,266,0.0,4.0,86,0.00,,FEW250,0.00,VWS V14.01,2013-07-25 11:01:00,
2013-07-25 06:05:00,55.3,50.9,30.00,West,266,0.0,0.0,85,0.00,,FEW250,0.00,VWS V14.01,2013-07-25 11:05:00,
2013-07-25 06:07:00,55.4,51.0,30.00,West,266,0.0,0.0,85,0.00,,FEW250,0.00,VWS V14.01,2013-07-25 11:07:00,
2013-07-25 06:10:00,55.4,51.0,30.00,West,264,0.0,0.0,85,0.00,,FEW250,0.00,VWS V14.01,2013-07-25 11:10:00,
2013-07-25 06:13:00,55.6,51.2,30.00,West,264,0.0,0.0,85,0.00,,FEW250,0.00,VWS V14.01,2013-07-25 11:13:00,
2013-07-25 06:15:00,55.7,51.3,30.00,West,264,0.0,0.0,85,0.00,,FEW250,0.00,VWS V14.01,2013-07-25 11:15:00,
2013-07-25 06:18:00,55.9,51.5,30.00,WSW,251,0.0,3.0,85,0.00,,FEW250,0.00,VWS V14.01,2013-07-25 11:18:00,
2013-07-25 06:20:00,55.9,51.5,30.00,WSW,244,0.0,4.0,85,0.00,,FEW250,0.00,VWS V14.01,2013-07-25 11:20:00,
2013-07-25 06:23:00,56.1,51.7,30.00,SW,236,3.0,5.0,85,0.00,,FEW250,0.00,VWS V14.01,2013-07-25 11:23:00,
2013-07-25 06:25:00,56.2,51.8,30.00,SW,236,0.0,5.0,85,0.00,,FEW250,0.00,VWS V14.01,2013-07-25 11:25:00,
2013-07-25 06:28:00,56.4,51.6,30.01,SW,236,0.0,5.0,84,0.00,,FEW250,0.00,VWS V14.01,2013-07-25 11:28:00,
2013-07-25 06:30:00,56.5,51.7,30.01,SW,236,0.0,5.0,84,0.00,,FEW250,0.00,VWS V14.01,2013-07-25 11:30:00,
2013-07-25 06:33:00,56.8,52.0,30.00,SW,236,0.0,4.0,84,0.00,,FEW250,0.00,VWS V14.01,2013-07-25 11:33:00,
2013-07-25 06:35:00,56.9,52.1,30.01,SW,236,0.0,4.0,84,0.00,,FEW250,0.00,VWS V14.01,2013-07-25 11:35:00,
2013-07-25 06:38:00,57.2,52.1,30.01,SW,235,2.0,4.0,83,0.00,,FEW250,0.00,VWS V14.01,2013-07-25 11:38:00,
2013-07-25 06:40:00,57.3,52.2,30.01,SW,235,0.0,4.0,83,0.00,,FEW250,0.00,VWS V14.01,2013-07-25 11:40:00,
2013-07-25 06:43:00,57.6,52.2,30.01,West,261,0.0,5.0,82,0.00,,FEW250,0.00,VWS V14.01,2013-07-25 11:43:00,
2013-07-25 06:45:00,57.7,52.2,30.01,WSW,248,1.0,5.0,82,0.00,,FEW250,0.00,VWS V14.01,2013-07-25 11:45:00,
2013-07-25 06:48:00,58.0,52.5,30.01,West,259,0.0,5.0,82,0.00,,FEW250,0.00,VWS V14.01,2013-07-25 11:48:00,
2013-07-25 06:50:00,58.1,52.3,30.01,West,259,0.0,5.0,81,0.00,,FEW250,0.00,VWS V14.01,2013-07-25 11:50:00,
2013-07-25 06:53:00,58.4,52.6,30.01,West,259,2.0,4.0,81,0.00,,FEW250,0.00,VWS V14.01,2013-07-25 11:53:00,
2013-07-25 06:55:00,58.5,52.7,30.01,West,259,0.0,4.0,81,0.00,,FEW250,0.00,VWS V14.01,2013-07-25 11:55:00,
2013-07-25 06:58:00,58.8,53.0,30.01,West,259,3.0,3.0,81,0.00,,FEW250,0.00,VWS V14.01,2013-07-25 11:58:00,
2013-07-25 07:00:00,58.9,53.1,30.01,West,259,1.0,4.0,81,0.00,,FEW250,0.00,VWS V14.01,2013-07-25 12:00:00,
2013-07-25 07:03:00,59.2,53.4,30.01,West,259,0.0,4.0,81,0.00,,CLR,0.00,VWS V14.01,2013-07-25 12:03:00,
2013-07-25 07:05:00,59.3,53.5,30.01,West,259,0.0,4.0,81,0.00,,FEW250,0.00,VWS V14.01,2013-07-25 12:05:00,
2013-07-25 07:08:00,59.6,53.4,30.01,West,266,2.0,6.0,80,0.00,,CLR,0.00,VWS V14.01,2013-07-25 12:08:00,
2013-07-25 07:10:00,59.7,53.5,30.01,West,265,0.0,6.0,80,0.00,,FEW250,0.00,VWS V14.01,2013-07-25 12:10:00,
2013-07-25 07:14:00,60.2,53.7,30.01,SW,232,2.0,5.0,79,0.00,,CLR,0.00,VWS V14.01,2013-07-25 12:14:00,
2013-07-25 07:15:00,60.4,53.9,30.01,WSW,255,4.0,5.0,79,0.00,,FEW250,0.00,VWS V14.01,2013-07-25 12:15:00,
2013-07-25 07:19:00,60.8,53.9,30.01,SW,233,3.0,7.0,78,0.00,,CLR,0.00,VWS V14.01,2013-07-25 12:19:00,
2013-07-25 07:20:00,60.8,53.9,30.01,WSW,248,2.0,7.0,78,0.00,,FEW250,0.00,VWS V14.01,2013-07-25 12:20:00,
2013-07-25 07:24:00,61.3,54.0,30.02,SW,223,0.0,5.0,77,0.00,,CLR,0.00,VWS V14.01,2013-07-25 12:24:00,
2013-07-25 07:25:00,61.3,54.0,30.02,SW,224,0.0,5.0,77,0.00,,FEW250,0.00,VWS V14.01,2013-07-25 12:25:00,
2013-07-25 07:29:00,61.6,54.0,30.02,WSW,248,4.0,7.0,76,0.00,,CLR,0.00,VWS V14.01,2013-07-25 12:29:00,
2013-07-25 07:30:00,61.6,54.0,30.02,WSW,239,4.0,7.0,76,0.00,,FEW250,0.00,VWS V14.01,2013-07-25 12:30:00,
2013-07-25 07:34:00,61.8,54.2,30.02,WSW,238,4.0,6.0,76,0.00,,CLR,0.00,VWS V14.01,2013-07-25 12:34:00,
2013-07-25 07:35:00,61.9,54.3,30.02,WSW,239,0.0,6.0,76,0.00,,FEW250,0.00,VWS V14.01,2013-07-25 12:35:00,
2013-07-25 07:39:00,62.3,55.0,30.02,SSW,193,0.0,7.0,77,0.00,,CLR,0.00,VWS V14.01,2013-07-25 12:39:00,
2013-07-25 07:40:00,62.3,55.0,30.02,North,360,1.0,7.0,77,0.00,,FEW250,0.00,VWS V14.01,2013-07-25 12:40:00,
2013-07-25 07:44:00,62.8,54.8,30.02,SW,215,4.0,6.0,75,0.00,,CLR,0.00,VWS V14.01,2013-07-25 12:44:00,
2013-07-25 07:45:00,62.8,54.8,30.02,SW,215,5.0,6.0,75,0.00,,FEW250,0.00,VWS V14.01,2013-07-25 12:45:00,
2013-07-25 07:49:00,63.1,54.7,30.02,SSW,200,1.0,9.0,74,0.00,,CLR,0.00,VWS V14.01,2013-07-25 12:49:00,
2013-07-25 07:50:00,63.1,54.7,30.02,SSW,200,1.0,9.0,74,0.00,,FEW250,0.00,VWS V14.01,2013-07-25 12:50:00,
2013-07-25 07:54:00,63.3,54.9,30.02,SSW,209,3.0,9.0,74,0.00,,CLR,0.00,VWS V14.01,2013-07-25 12:54:00,
2013-07-25 07:55:00,63.3,54.9,30.02,SSW,209,3.0,9.0,74,0.00,,FEW250,0.00,VWS V14.01,2013-07-25 12:55:00,
2013-07-25 07:59:00,63.6,55.2,30.02,SW,225,2.0,8.0,74,0.00,,CLR,0.00,VWS V14.01,2013-07-25 12:59:00,
2013-07-25 08:00:00,63.6,55.2,30.02,SW,225,2.0,8.0,74,0.00,,FEW250,0.00,VWS V14.01,2013-07-25 13:00:00,
2013-07-25 08:05:00,64.0,55.6,30.02,SSW,213,1.0,7.0,74,0.00,,CLR,0.00,VWS V14.01,2013-07-25 13:05:00,
2013-07-25 08:10:00,64.5,56.0,30.01,SW,221,0.0,7.0,74,0.00,,CLR,0.00,VWS V14.01,2013-07-25 13:10:00,
2013-07-25 08:15:00,65.2,56.3,30.01,SW,216,1.0,5.0,73,0.00,,CLR,0.00,VWS V14.01,2013-07-25 13:15:00,
2013-07-25 08:20:00,65.7,56.4,30.01,SSW,196,5.0,6.0,72,0.00,,CLR,0.00,VWS V14.01,2013-07-25 13:20:00,
2013-07-25 08:25:00,66.0,56.7,30.01,SW,224,0.0,4.0,72,0.00,,CLR,0.00,VWS V14.01,2013-07-25 13:25:00,
2013-07-25 08:30:00,66.2,56.1,30.01,SW,224,5.0,7.0,70,0.00,,CLR,0.00,VWS V14.01,2013-07-25 13:30:00,
2013-07-25 08:35:00,66.4,56.3,30.01,SW,233,2.0,9.0,70,0.00,,CLR,0.00,VWS V14.01,2013-07-25 13:35:00,
2013-07-25 08:40:00,66.6,56.5,30.01,SSW,204,3.0,8.0,70,0.00,,FEW250,0.00,VWS V14.01,2013-07-25 13:40:00,
2013-07-25 08:41:00,66.6,56.5,30.01,SSW,203,0.0,8.0,70,0.00,,CLR,0.00,VWS V14.01,2013-07-25 13:41:00,
2013-07-25 08:45:00,67.0,56.9,30.01,SSW,204,0.0,3.0,70,0.00,,FEW250,0.00,VWS V14.01,2013-07-25 13:45:00,
2013-07-25 08:46:00,67.2,57.1,30.01,SSW,204,0.0,0.0,70,0.00,,CLR,0.00,VWS V14.01,2013-07-25 13:46:00,
2013-07-25 08:50:00,67.7,57.2,30.01,SSW,204,0.0,0.0,69,0.00,,FEW250,0.00,VWS V14.01,2013-07-25 13:50:00,
2013-07-25 08:51:00,67.9,57.0,30.01,SSW,204,0.0,0.0,68,0.00,,CLR,0.00,VWS V14.01,2013-07-25 13:51:00,
2013-07-25 08:55:00,68.3,56.5,30.01,North,360,3.0,5.0,66,0.00,,FEW250,0.00,VWS V14.01,2013-07-25 13:55:00,
2013-07-25 08:56:00,68.5,56.7,30.01,SSW,194,5.0,6.0,66,0.00,,CLR,0.00,VWS V14.01,2013-07-25 13:56:00,
2013-07-25 09:00:00,68.8,57.4,30.01,North,360,3.0,6.0,67,0.00,,FEW250,0.00,VWS V14.01,2013-07-25 14:00:00,
2013-07-25 09:01:00,69.0,57.2,30.01,North,360,3.0,4.0,66,0.00,,CLR,0.00,VWS V14.01,2013-07-25 14:01:00,
2013-07-25 09:05:00,69.6,57.8,30.01,SSW,192,3.0,4.0,66,0.00,,FEW250,0.00,VWS V14.01,2013-07-25 14:05:00,
2013-07-25 09:06:00,69.9,58.0,30.01,SSW,192,0.0,4.0,66,0.00,,CLR,0.00,VWS V14.01,2013-07-25 14:06:00,
2013-07-25 09:10:00,70.5,57.3,30.01,North,360,4.0,5.0,63,0.00,,FEW250,0.00,VWS V14.01,2013-07-25 14:10:00,
2013-07-25 09:11:00,70.7,57.1,30.01,North,360,3.0,6.0,62,0.00,,CLR,0.00,VWS V14.01,2013-07-25 14:11:00,
2013-07-25 09:15:00,70.5,56.4,30.01,South,191,1.0,7.0,61,0.00,,FEW250,0.00,VWS V14.01,2013-07-25 14:15:00,
2013-07-25 09:16:00,70.6,56.5,30.01,South,191,0.0,7.0,61,0.00,,CLR,0.00,VWS V14.01,2013-07-25 14:16:00,
2013-07-25 09:20:00,70.8,56.7,30.01,South,186,4.0,6.0,61,0.00,,FEW250,0.00,VWS V14.01,2013-07-25 14:20:00,
2013-07-25 09:21:00,70.9,56.3,30.01,North,360,4.0,6.0,60,0.00,,CLR,0.00,VWS V14.01,2013-07-25 14:21:00,
2013-07-25 09:25:00,71.0,56.4,30.01,North,360,7.0,9.0,60,0.00,,FEW250,0.00,VWS V14.01,2013-07-25 14:25:00,
2013-07-25 09:26:00,70.7,56.2,30.01,South,175,0.0,9.0,60,0.00,,CLR,0.00,VWS V14.01,2013-07-25 14:26:00,
2013-07-25 09:30:00,70.8,56.2,30.01,North,360,5.0,8.0,60,0.00,,FEW250,0.00,VWS V14.01,2013-07-25 14:30:00,
2013-07-25 09:32:00,70.7,55.7,30.01,SSW,205,0.0,9.0,59,0.00,,CLR,0.00,VWS V14.01,2013-07-25 14:32:00,
2013-07-25 09:35:00,70.6,56.5,30.00,North,360,2.0,9.0,61,0.00,,FEW250,0.00,VWS V14.01,2013-07-25 14:35:00,
2013-07-25 09:37:00,70.8,56.7,30.01,North,360,4.0,7.0,61,0.00,,CLR,0.00,VWS V14.01,2013-07-25 14:37:00,
2013-07-25 09:40:00,70.7,55.7,30.01,SW,221,4.0,7.0,59,0.00,,FEW250,0.00,VWS V14.01,2013-07-25 14:40:00,
2013-07-25 09:42:00,70.7,55.7,30.01,SSW,202,5.0,7.0,59,0.00,,CLR,0.00,VWS V14.01,2013-07-25 14:42:00,
2013-07-25 09:45:00,70.7,56.2,30.01,SSW,210,6.0,7.0,60,0.00,,FEW250,0.00,VWS V14.01,2013-07-25 14:45:00,
2013-07-25 09:47:00,70.8,56.2,30.01,North,360,5.0,8.0,60,0.00,,CLR,0.00,VWS V14.01,2013-07-25 14:47:00,
2013-07-25 09:50:00,71.0,56.9,30.01,North,360,4.0,8.0,61,0.00,,FEW250,0.00,VWS V14.01,2013-07-25 14:50:00,
2013-07-25 09:52:00,71.0,56.4,30.01,North,360,0.0,8.0,60,0.00,,CLR,0.00,VWS V14.01,2013-07-25 14:52:00,
2013-07-25 09:55:00,71.2,57.1,30.01,North,360,0.0,4.0,61,0.00,,FEW250,0.00,VWS V14.01,2013-07-25 14:55:00,
2013-07-25 09:57:00,71.5,56.9,30.01,North,360,6.0,7.0,60,0.00,,CLR,0.00,VWS V14.01,2013-07-25 14:57:00,
2013-07-25 10:00:00,71.6,55.6,30.01,North,360,4.0,8.0,57,0.00,,FEW250,0.00,VWS V14.01,2013-07-25 15:00:00,
2013-07-25 10:02:00,71.7,56.6,30.01,North,360,2.0,8.0,59,0.00,,FEW040,0.00,VWS V14.01,2013-07-25 15:02:00,
2013-07-25 10:05:00,72.0,56.0,30.01,North,360,0.0,7.0,57,0.00,,FEW250,0.00,VWS V14.01,2013-07-25 15:05:00,
2013-07-25 10:07:00,72.0,55.5,30.02,North,360,2.0,10.0,56,0.00,,FEW040,0.00,VWS V14.01,2013-07-25 15:07:00,
2013-07-25 10:10:00,72.1,56.5,30.02,South,177,7.0,10.0,58,0.00,,FEW250,0.00,VWS V14.01,2013-07-25 15:10:00,
2013-07-25 10:12:00,72.2,55.2,30.01,North,360,6.0,10.0,55,0.00,,FEW040,0.00,VWS V14.01,2013-07-25 15:12:00,
2013-07-25 10:15:00,72.1,55.1,30.01,North,360,0.0,10.0,55,0.00,,FEW250,0.00,VWS V14.01,2013-07-25 15:15:00,
2013-07-25 10:17:00,72.4,55.3,30.01,North,360,8.0,10.0,55,0.00,,FEW040,0.00,VWS V14.01,2013-07-25 15:17:00,
2013-07-25 10:20:00,72.5,55.4,30.01,North,360,5.0,10.0,55,0.00,,FEW250,0.00,VWS V14.01,2013-07-25 15:20:00,
2013-07-25 10:22:00,72.6,55.0,30.01,North,360,5.0,8.0,54,0.00,,FEW040,0.00,VWS V14.01,2013-07-25 15:22:00,
2013-07-25 10:25:00,72.7,56.1,30.01,South,173,0.0,7.0,56,0.00,,FEW250,0.00,VWS V14.01,2013-07-25 15:25:00,
2013-07-25 10:27:00,73.0,56.4,30.01,SSW,202,0.0,6.0,56,0.00,,FEW040,0.00,VWS V14.01,2013-07-25 15:27:00,
2013-07-25 10:30:00,73.1,56.5,30.01,North,360,0.0,6.0,56,0.00,,FEW250,0.00,VWS V14.01,2013-07-25 15:30:00,
2013-07-25 10:32:00,73.6,57.0,30.01,North,360,9.0,9.0,56,0.00,,FEW040,0.00,VWS V14.01,2013-07-25 15:32:00,
2013-07-25 10:35:00,73.7,55.0,30.01,North,360,0.0,9.0,52,0.00,,FEW250,0.00,VWS V14.01,2013-07-25 15:35:00,
2013-07-25 10:38:00,74.0,60.2,30.01,ESE,104,0.0,6.0,62,0.00,,FEW040,0.00,VWS V14.01,2013-07-25 15:38:00,
2013-07-25 10:40:00,74.2,61.2,30.01,ESE,109,0.0,2.0,64,0.00,,FEW250,0.00,VWS V14.01,2013-07-25 15:40:00,
2013-07-25 10:43:00,73.9,61.4,30.01,ESE,120,0.0,7.0,65,0.00,,FEW040,0.00,VWS V14.01,2013-07-25 15:43:00,
2013-07-25 10:45:00,73.8,61.7,30.01,SE,137,0.0,7.0,66,0.00,,FEW250,0.00,VWS V14.01,2013-07-25 15:45:00,
2013-07-25 10:48:00,73.6,61.5,30.02,SSE,159,0.0,6.0,66,0.00,,FEW040,0.00,VWS V14.01,2013-07-25 15:48:00,
2013-07-25 10:50:00,73.6,61.1,30.02,SSE,160,0.0,6.0,65,0.00,,FEW250,0.00,VWS V14.01,2013-07-25 15:50:00,
2013-07-25 10:53:00,73.6,61.1,30.02,ESE,123,0.0,3.0,65,0.00,,FEW040,0.00,VWS V14.01,2013-07-25 15:53:00,
2013-07-25 10:55:00,73.4,61.4,30.02,SSE,165,0.0,8.0,66,0.00,,FEW250,0.00,VWS V14.01,2013-07-25 15:55:00,
2013-07-25 10:58:00,72.8,61.6,30.01,SE,133,0.0,7.0,68,0.00,,FEW040,0.00,VWS V14.01,2013-07-25 15:58:00,
2013-07-25 11:00:00,72.6,61.0,30.02,SE,125,0.0,7.0,67,0.00,,FEW250,0.00,VWS V14.01,2013-07-25 16:00:00,
2013-07-25 11:03:00,72.8,60.4,30.02,SSE,156,0.0,8.0,65,0.00,,SCT250,0.00,VWS V14.01,2013-07-25 16:03:00,
2013-07-25 11:05:00,73.1,61.5,30.01,SE,145,0.0,9.0,67,0.00,,FEW250,0.00,VWS V14.01,2013-07-25 16:05:00,
2013-07-25 11:08:00,73.2,61.6,30.02,SE,132,2.0,9.0,67,0.00,,SCT250,0.00,VWS V14.01,2013-07-25 16:08:00,
2013-07-25 11:10:00,73.1,61.9,30.01,SE,131,4.0,7.0,68,0.00,,FEW250,0.00,VWS V14.01,2013-07-25 16:10:00,
2013-07-25 11:13:00,72.3,61.2,30.02,SE,128,8.0,11.0,68,0.00,,SCT250,0.00,VWS V14.01,2013-07-25 16:13:00,
2013-07-25 11:15:00,72.0,60.5,30.02,ESE,118,4.0,11.0,67,0.00,,FEW250,0.00,VWS V14.01,2013-07-25 16:15:00,
2013-07-25 11:18:00,71.5,61.6,30.01,ESE,123,0.0,12.0,71,0.00,,SCT250,0.00,VWS V14.01,2013-07-25 16:18:00,
2013-07-25 11:20:00,71.5,62.0,30.02,SE,138,0.0,12.0,72,0.00,,FEW250,0.00,VWS V14.01,2013-07-25 16:20:00,
2013-07-25 11:23:00,71.1,61.2,30.02,ESE,121,0.0,10.0,71,0.00,,SCT250,0.00,VWS V14.01,2013-07-25 16:23:00,
2013-07-25 11:25:00,71.0,61.1,30.02,SE,137,0.0,10.0,71,0.00,,FEW250,0.00,VWS V14.01,2013-07-25 16:25:00,
2013-07-25 11:29:00,71.1,62.0,30.02,SE,128,0.0,1.0,73,0.00,,SCT250,0.00,VWS V14.01,2013-07-25 16:29:00,
2013-07-25 11:30:00,71.2,62.1,30.02,ESE,113,1.0,4.0,73,0.00,,FEW250,0.00,VWS V14.01,2013-07-25 16:30:00,
2013-07-25 11:34:00,71.1,61.6,30.01,SE,146,0.0,8.0,72,0.00,,SCT250,0.00,VWS V14.01,2013-07-25 16:34:00,
2013-07-25 11:35:00,71.1,61.6,30.01,SE,146,0.0,5.0,72,0.00,,FEW250,0.00,VWS V14.01,2013-07-25 16:35:00,
2013-07-25 11:39:00,72.0,62.1,30.01,North,360,7.0,7.0,71,0.00,,SCT250,0.00,VWS V14.01,2013-07-25 16:39:00,
2013-07-25 11:40:00,72.1,62.2,30.01,SE,138,4.0,7.0,71,0.00,,FEW250,0.00,VWS V14.01,2013-07-25 16:40:00,
2013-07-25 11:44:00,72.3,62.0,30.01,SE,125,0.0,12.0,70,0.00,,SCT250,0.00,VWS V14.01,2013-07-25 16:44:00,
2013-07-25 11:45:00,72.3,62.0,30.01,SE,125,0.0,12.0,70,0.00,,FEW250,0.00,VWS V14.01,2013-07-25 16:45:00,
2013-07-25 11:49:00,71.8,61.9,30.01,SSE,156,6.0,11.0,71,0.00,,SCT250,0.00,VWS V14.01,2013-07-25 16:49:00,
2013-07-25 11:50:00,71.8,61.9,30.01,SSE,156,6.0,11.0,71,0.00,,FEW250,0.00,VWS V14.01,2013-07-25 16:50:00,
2013-07-25 11:54:00,72.1,63.0,30.01,South,185,0.0,4.0,73,0.00,,SCT250,0.00,VWS V14.01,2013-07-25 16:54:00,
2013-07-25 11:55:00,72.1,63.0,30.01,South,185,0.0,4.0,73,0.00,,FEW250,0.00,VWS V14.01,2013-07-25 16:55:00,
2013-07-25 11:59:00,71.7,61.4,30.01,SE,127,0.0,8.0,70,0.00,,SCT250,0.00,VWS V14.01,2013-07-25 16:59:00,
2013-07-25 12:00:00,71.7,61.4,30.01,SE,127,0.0,8.0,70,0.00,,FEW250,0.00,VWS V14.01,2013-07-25 17:00:00,
2013-07-25 12:04:00,71.5,62.0,30.00,ESE,106,0.0,10.0,72,0.00,,BKN250,0.00,VWS V14.01,2013-07-25 17:04:00,
2013-07-25 12:05:00,71.5,62.0,30.00,ESE,106,0.0,10.0,72,0.00,,FEW250,0.00,VWS V14.01,2013-07-25 17:05:00,
2013-07-25 12:10:00,71.9,62.4,30.00,North,360,0.0,8.0,72,0.00,,BKN250,0.00,VWS V14.01,2013-07-25 17:10:00,
2013-07-25 12:15:00,71.6,61.7,30.01,SSE,148,0.0,9.0,71,0.00,,BKN250,0.00,VWS V14.01,2013-07-25 17:15:00,
2013-07-25 12:20:00,71.6,62.1,30.01,North,360,0.0,6.0,72,0.00,,BKN250,0.00,VWS V14.01,2013-07-25 17:20:00,
2013-07-25 12:25:00,72.1,62.2,30.01,SE,146,0.0,5.0,71,0.00,,BKN250,0.00,VWS V14.01,2013-07-25 17:25:00,
2013-07-25 12:30:00,71.8,61.9,30.01,SSE,148,0.0,6.0,71,0.00,,BKN250,0.00,VWS V14.01,2013-07-25 17:30:00,
2013-07-25 12:35:00,71.7,62.2,30.01,SSE,165,0.0,7.0,72,0.00,,BKN250,0.00,VWS V14.01,2013-07-25 17:35:00,
2013-07-25 12:40:00,72.0,62.9,30.01,SE,137,0.0,5.0,73,0.00,,BKN250,0.00,VWS V14.01,2013-07-25 17:40:00,
2013-07-25 12:45:00,72.6,62.3,30.00,North,360,3.0,7.0,70,0.00,,BKN250,0.00,VWS V14.01,2013-07-25 17:45:00,
2013-07-25 12:50:00,72.4,62.5,30.00,SSE,150,0.0,7.0,71,0.00,,FEW250,0.00,VWS V14.01,2013-07-25 17:50:00,
2013-07-25 12:51:00,72.3,62.4,30.00,SE,131,1.0,2.0,71,0.00,,BKN250,0.00,VWS V14.01,2013-07-25 17:51:00,
2013-07-25 12:55:00,72.2,62.3,30.00,SE,132,0.0,2.0,71,0.00,,FEW250,0.00,VWS V14.01,2013-07-25 17:55:00,
2013-07-25 12:56:00,72.3,62.4,30.00,SE,128,0.0,5.0,71,0.00,,BKN250,0.00,VWS V14.01,2013-07-25 17:56:00,
2013-07-25 13:00:00,72.6,62.7,30.00,SSW,196,0.0,3.0,71,0.00,,FEW250,0.00,VWS V14.01,2013-07-25 18:00:00,
2013-07-25 13:01:00,72.7,62.8,30.00,SE,127,0.0,2.0,71,0.00,,BKN230,0.00,VWS V14.01,2013-07-25 18:01:00,
2013-07-25 13:05:00,73.0,63.0,30.00,SSE,149,2.0,7.0,71,0.00,,FEW250,0.00,VWS V14.01,2013-07-25 18:05:00,
2013-07-25 13:06:00,73.1,63.2,29.99,SE,144,0.0,7.0,71,0.00,,BKN230,0.00,VWS V14.01,2013-07-25 18:06:00,
2013-07-25 13:10:00,73.5,63.5,29.99,SSE,156,0.0,4.0,71,0.00,,FEW250,0.00,VWS V14.01,2013-07-25 18:10:00,
2013-07-25 13:11:00,73.6,63.2,29.99,SSE,148,0.0,4.0,70,0.00,,BKN230,0.00,VWS V14.01,2013-07-25 18:11:00,
2013-07-25 13:15:00,73.3,62.5,29.99,SSE,150,0.0,6.0,69,0.00,,FEW250,0.00,VWS V14.01,2013-07-25 18:15:00,
2013-07-25 13:16:00,73.3,63.3,29.99,SSE,160,0.0,6.0,71,0.00,,BKN230,0.00,VWS V14.01,2013-07-25 18:16:00,
2013-07-25 13:20:00,72.9,62.1,29.99,SSE,153,4.0,10.0,69,0.00,,FEW250,0.00,VWS V14.01,2013-07-25 18:20:00,
2013-07-25 13:21:00,72.6,62.3,29.99,SE,142,0.0,10.0,70,0.00,,BKN230,0.00,VWS V14.01,2013-07-25 18:21:00,
2013-07-25 13:25:00,72.2,62.3,29.99,SE,141,0.0,10.0,71,0.00,,FEW250,0.00,VWS V14.01,2013-07-25 18:25:00,
2013-07-25 13:26:00,72.2,62.7,29.99,SE,144,2.0,7.0,72,0.00,,BKN230,0.00,VWS V14.01,2013-07-25 18:26:00,
2013-07-25 13:30:00,71.8,62.3,29.99,North,360,1.0,8.0,72,0.00,,FEW250,0.00,VWS V14.01,2013-07-25 18:30:00,
2013-07-25 13:31:00,71.6,62.5,29.99,SSW,196,1.0,9.0,73,0.00,,BKN230,0.00,VWS V14.01,2013-07-25 18:31:00,
2013-07-25 13:35:00,71.9,63.2,29.99,ESE,118,0.0,6.0,74,0.00,,FEW250,0.00,VWS V14.01,2013-07-25 18:35:00,
2013-07-25 13:36:00,72.1,63.0,29.99,SE,135,0.0,7.0,73,0.00,,BKN230,0.00,VWS V14.01,2013-07-25 18:36:00,
2013-07-25 13:40:00,72.4,62.9,29.99,North,360,3.0,7.0,72,0.00,,FEW250,0.00,VWS V14.01,2013-07-25 18:40:00,
2013-07-25 13:41:00,72.4,62.9,29.99,SE,136,0.0,9.0,72,0.00,,BKN230,0.00,VWS V14.01,2013-07-25 18:41:00,
2013-07-25 13:45:00,72.2,62.3,29.99,SSE,161,1.0,7.0,71,0.00,,FEW250,0.00,VWS V14.01,2013-07-25 18:45:00,
2013-07-25 13:47:00,71.9,62.4,29.99,SE,136,0.0,7.0,72,0.00,,BKN230,0.00,VWS V14.01,2013-07-25 18:47:00,
2013-07-25 13:50:00,71.6,62.1,29.99,SE,139,0.0,12.0,72,0.00,,FEW250,0.00,VWS V14.01,2013-07-25 18:50:00,
2013-07-25 13:52:00,71.6,62.5,29.99,SSE,155,1.0,10.0,73,0.00,,BKN230,0.00,VWS V14.01,2013-07-25 18:52:00,
2013-07-25 13:55:00,71.4,61.9,29.99,ESE,118,0.0,10.0,72,0.00,,FEW250,0.00,VWS V14.01,2013-07-25 18:55:00,
2013-07-25 13:57:00,71.3,62.2,29.99,SSE,159,0.0,10.0,73,0.00,,BKN230,0.00,VWS V14.01,2013-07-25 18:57:00,
2013-07-25 14:00:00,71.3,62.2,29.99,SSE,156,0.0,9.0,73,0.00,,FEW250,0.00,VWS V14.01,2013-07-25 19:00:00,
2013-07-25 14:02:00,71.3,61.8,29.99,SSE,150,4.0,7.0,72,0.00,,BKN230,0.00,VWS V14.01,2013-07-25 19:02:00,
2013-07-25 14:05:00,71.3,62.2,29.99,SE,146,0.0,7.0,73,0.00,,FEW250,0.00,VWS V14.01,2013-07-25 19:05:00,
2013-07-25 14:07:00,71.5,62.8,29.99,South,169,2.0,5.0,74,0.00,,BKN230,0.00,VWS V14.01,2013-07-25 19:07:00,
2013-07-25 14:10:00,71.6,62.5,29.99,SE,146,0.0,5.0,73,0.00,,FEW250,0.00,VWS V14.01,2013-07-25 19:10:00,
2013-07-25 14:12:00,71.5,61.6,29.99,SE,129,0.0,13.0,71,0.00,,BKN230,0.00,VWS V14.01,2013-07-25 19:12:00,
2013-07-25 14:15:00,71.4,61.9,29.99,SE,138,7.0,13.0,72,0.00,,FEW250,0.00,VWS V14.01,2013-07-25 19:15:00,
2013-07-25 14:17:00,71.6,62.1,29.99,SSE,153,0.0,12.0,72,0.00,,BKN230,0.00,VWS V14.01,2013-07-25 19:17:00,
2013-07-25 14:20:00,71.9,62.4,29.99,SE,138,0.0,11.0,72,0.00,,FEW250,0.00,VWS V14.01,2013-07-25 19:20:00,
2013-07-25 14:22:00,72.3,62.4,29.99,SSE,150,4.0,7.0,71,0.00,,BKN230,0.00,VWS V14.01,2013-07-25 19:22:00,
2013-07-25 14:25:00,72.4,62.1,29.99,North,360,0.0,5.0,70,0.00,,FEW250,0.00,VWS V14.01,2013-07-25 19:25:00,
2013-07-25 14:28:00,72.2,61.9,29.99,SSE,155,2.0,9.0,70,0.00,,BKN230,0.00,VWS V14.01,2013-07-25 19:28:00,
2013-07-25 14:30:00,72.1,61.4,29.99,SE,142,2.0,11.0,69,0.00,,FEW250,0.00,VWS V14.01,2013-07-25 19:30:00,
2013-07-25 14:33:00,71.8,61.9,29.98,SSW,205,1.0,11.0,71,0.00,,BKN230,0.00,VWS V14.01,2013-07-25 19:33:00,
2013-07-25 14:35:00,71.9,62.0,29.98,SSE,151,0.0,8.0,71,0.00,,FEW250,0.00,VWS V14.01,2013-07-25 19:35:00,
2013-07-25 14:38:00,71.9,61.6,29.98,SSE,165,0.0,6.0,70,0.00,,BKN230,0.00,VWS V14.01,2013-07-25 19:38:00,
2013-07-25 14:40:00,71.8,61.5,29.98,ESE,102,0.0,6.0,70,0.00,,FEW250,0.00,VWS V14.01,2013-07-25 19:40:00,
2013-07-25 14:43:00,71.5,62.0,29.98,South,177,3.0,8.0,72,0.00,,BKN230,0.00,VWS V14.01,2013-07-25 19:43:00,
2013-07-25 14:45:00,71.5,61.6,29.98,SSE,157,2.0,8.0,71,0.00,,FEW250,0.00,VWS V14.01,2013-07-25 19:45:00,
2013-07-25 14:48:00,71.5,62.4,29.98,SSE,153,1.0,14.0,73,0.00,,BKN230,0.00,VWS V14.01,2013-07-25 19:48:00,
2013-07-25 14:50:00,71.4,62.3,29.98,SSE,156,0.0,14.0,73,0.00,,FEW250,0.00,VWS V14.01,2013-07-25 19:50:00,
2013-07-25 14:53:00,71.1,62.0,29.98,SE,144,1.0,5.0,73,0.00,,BKN230,0.00,VWS V14.01,2013-07-25 19:53:00,
2013-07-25 14:55:00,71.0,62.3,29.98,SSE,150,0.0,5.0,74,0.00,,FEW250,0.00,VWS V14.01,2013-07-25 19:55:00,
2013-07-25 14:58:00,70.8,62.1,29.98,North,360,2.0,11.0,74,0.00,,BKN230,0.00,VWS V14.01,2013-07-25 19:58:00,
2013-07-25 15:00:00,70.7,62.0,29.98,SE,137,1.0,11.0,74,0.00,,FEW250,0.00,VWS V14.01,2013-07-25 20:00:00,
2013-07-25 15:03:00,71.2,62.5,29.98,SSE,168,0.0,9.0,74,0.00,,BKN240,0.00,VWS V14.01,2013-07-25 20:03:00,
2013-07-25 15:05:00,71.5,62.8,29.98,SE,125,2.0,9.0,74,0.00,,FEW250,0.00,VWS V14.01,2013-07-25 20:05:00,
2013-07-25 15:08:00,72.0,62.9,29.97,South,170,3.0,7.0,73,0.00,,BKN240,0.00,VWS V14.01,2013-07-25 20:08:00,
2013-07-25 15:10:00,72.1,62.6,29.97,SE,135,5.0,9.0,72,0.00,,FEW250,0.00,VWS V14.01,2013-07-25 20:10:00,
2013-07-25 15:13:00,71.9,62.4,29.97,SSE,148,6.0,8.0,72,0.00,,BKN240,0.00,VWS V14.01,2013-07-25 20:13:00,
2013-07-25 15:15:00,71.9,62.8,29.97,SE,142,0.0,7.0,73,0.00,,FEW250,0.00,VWS V14.01,2013-07-25 20:15:00,
2013-07-25 15:18:00,72.0,62.5,29.97,WSW,239,4.0,11.0,72,0.00,,BKN240,0.00,VWS V14.01,2013-07-25 20:18:00,
2013-07-25 15:20:00,71.9,62.0,29.97,SE,137,2.0,11.0,71,0.00,,FEW250,0.00,VWS V14.01,2013-07-25 20:20:00,
2013-07-25 15:23:00,71.5,62.4,29.97,SE,138,8.0,8.0,73,0.00,,BKN240,0.00,VWS V14.01,2013-07-25 20:23:00,
2013-07-25 15:25:00,71.4,62.3,29.97,SE,140,0.0,10.0,73,0.00,,FEW250,0.00,VWS V14.01,2013-07-25 20:25:00,
2013-07-25 15:28:00,71.2,62.1,29.97,SE,125,0.0,9.0,73,0.00,,BKN240,0.00,VWS V14.01,2013-07-25 20:28:00,
2013-07-25 15:30:00,71.3,62.2,29.97,North,360,0.0,7.0,73,0.00,,FEW250,0.00,VWS V14.01,2013-07-25 20:30:00,
2013-07-25 15:33:00,71.6,62.5,29.97,North,360,0.0,10.0,73,0.00,,BKN240,0.00,VWS V14.01,2013-07-25 20:33:00,
2013-07-25 15:35:00,71.6,62.5,29.97,East,81,0.0,16.0,73,0.00,,FEW250,0.00,VWS V14.01,2013-07-25 20:35:00,
2013-07-25 15:39:00,71.6,62.1,29.96,SE,142,5.0,16.0,72,0.00,,BKN240,0.00,VWS V14.01,2013-07-25 20:39:00,
2013-07-25 15:40:00,71.7,62.2,29.96,SSE,149,0.0,11.0,72,0.00,,FEW250,0.00,VWS V14.01,2013-07-25 20:40:00,
2013-07-25 15:44:00,71.9,62.4,29.97,South,170,0.0,7.0,72,0.00,,BKN240,0.00,VWS V14.01,2013-07-25 20:44:00,
2013-07-25 15:45:00,71.9,62.4,29.96,SE,133,0.0,7.0,72,0.00,,FEW250,0.00,VWS V14.01,2013-07-25 20:45:00,
2013-07-25 15:49:00,71.8,62.3,29.96,SSE,159,1.0,10.0,72,0.00,,BKN240,0.00,VWS V14.01,2013-07-25 20:49:00,
2013-07-25 15:50:00,71.8,61.9,29.96,South,177,4.0,10.0,71,0.00,,FEW250,0.00,VWS V14.01,2013-07-25 20:50:00,
2013-07-25 15:54:00,71.1,61.6,29.96,SE,139,1.0,7.0,72,0.00,,BKN240,0.00,VWS V14.01,2013-07-25 20:54:00,
2013-07-25 15:55:00,71.1,61.6,29.96,SE,138,1.0,7.0,72,0.00,,FEW250,0.00,VWS V14.01,2013-07-25 20:55:00,
2013-07-25 15:59:00,70.7,61.6,29.96,SSE,150,0.0,7.0,73,0.00,,BKN240,0.00,VWS V14.01,2013-07-25 20:59:00,
2013-07-25 16:00:00,70.7,61.6,29.96,SE,137,1.0,7.0,73,0.00,,FEW250,0.00,VWS V14.01,2013-07-25 21:00:00,
2013-07-25 16:04:00,70.4,61.7,29.97,South,180,3.0,10.0,74,0.00,,BKN250,0.00,VWS V14.01,2013-07-25 21:04:00,
2013-07-25 16:05:00,70.4,61.7,29.96,SSW,192,1.0,10.0,74,0.00,,FEW250,0.00,VWS V14.01,2013-07-25 21:05:00,
2013-07-25 16:09:00,70.8,61.7,29.96,ESE,123,0.0,10.0,73,0.00,,BKN250,0.00,VWS V14.01,2013-07-25 21:09:00,
2013-07-25 16:10:00,70.8,61.7,29.96,ESE,123,0.0,10.0,73,0.00,,FEW250,0.00,VWS V14.01,2013-07-25 21:10:00,
2013-07-25 16:14:00,71.3,61.8,29.95,North,360,0.0,9.0,72,0.00,,BKN250,0.00,VWS V14.01,2013-07-25 21:14:00,
2013-07-25 16:15:00,71.3,61.8,29.95,North,360,0.0,9.0,72,0.00,,FEW250,0.00,VWS V14.01,2013-07-25 21:15:00,
2013-07-25 16:19:00,71.4,62.3,29.96,SE,124,4.0,13.0,73,0.00,,BKN250,0.00,VWS V14.01,2013-07-25 21:19:00,
2013-07-25 16:20:00,71.4,62.3,29.96,SE,124,4.0,13.0,73,0.00,,FEW250,0.00,VWS V14.01,2013-07-25 21:20:00,
2013-07-25 16:24:00,71.0,61.1,29.95,SE,143,4.0,8.0,71,0.00,,BKN250,0.00,VWS V14.01,2013-07-25 21:24:00,
2013-07-25 16:25:00,71.0,61.1,29.95,SE,143,4.0,8.0,71,0.00,,FEW250,0.00,VWS V14.01,2013-07-25 21:25:00,
2013-07-25 16:29:00,70.7,61.6,29.95,SE,124,1.0,7.0,73,0.00,,BKN250,0.00,VWS V14.01,2013-07-25 21:29:00,
2013-07-25 16:30:00,70.7,61.6,29.95,SE,124,1.0,7.0,73,0.00,,FEW250,0.00,VWS V14.01,2013-07-25 21:30:00,
2013-07-25 16:34:00,70.5,61.8,29.95,SE,128,4.0,8.0,74,0.00,,BKN250,0.00,VWS V14.01,2013-07-25 21:34:00,
2013-07-25 16:35:00,70.5,61.8,29.95,SE,128,4.0,8.0,74,0.00,,FEW250,0.00,VWS V14.01,2013-07-25 21:35:00,
2013-07-25 16:39:00,70.6,61.9,29.96,SE,128,2.0,7.0,74,0.00,,BKN250,0.00,VWS V14.01,2013-07-25 21:39:00,
2013-07-25 16:40:00,70.6,61.9,29.96,SE,128,2.0,7.0,74,0.00,,FEW250,0.00,VWS V14.01,2013-07-25 21:40:00,
2013-07-25 16:44:00,70.4,61.7,29.96,ESE,121,3.0,8.0,74,0.00,,BKN250,0.00,VWS V14.01,2013-07-25 21:44:00,
2013-07-25 16:45:00,70.4,61.7,29.96,ESE,121,3.0,8.0,74,0.00,,FEW250,0.00,VWS V14.01,2013-07-25 21:45:00,
2013-07-25 16:50:00,70.4,61.3,29.96,SE,139,3.0,7.0,73,0.00,,BKN250,0.00,VWS V14.01,2013-07-25 21:50:00,
2013-07-25 16:55:00,70.4,61.7,29.95,South,171,0.0,10.0,74,0.00,,BKN250,0.00,VWS V14.01,2013-07-25 21:55:00,
2013-07-25 17:00:00,70.6,61.5,29.95,SE,133,0.0,8.0,73,0.00,,BKN250,0.00,VWS V14.01,2013-07-25 22:00:00,
2013-07-25 17:05:00,70.7,61.6,29.95,North,360,0.0,4.0,73,0.00,,BKN250,0.00,VWS V14.01,2013-07-25 22:05:00,
2013-07-25 17:10:00,70.7,61.2,29.95,East,86,0.0,4.0,72,0.00,,FEW250,0.00,VWS V14.01,2013-07-25 22:10:00,
2013-07-25 17:11:00,70.8,61.7,29.95,SSE,166,0.0,4.0,73,0.00,,BKN250,0.00,VWS V14.01,2013-07-25 22:11:00,
2013-07-25 17:15:00,70.8,61.3,29.95,ESE,114,0.0,7.0,72,0.00,,FEW250,0.00,VWS V14.01,2013-07-25 22:15:00,
2013-07-25 17:16:00,70.8,61.3,29.95,SE,146,0.0,7.0,72,0.00,,BKN250,0.00,VWS V14.01,2013-07-25 22:16:00,
2013-07-25 17:20:00,70.7,61.2,29.95,SW,215,1.0,1.0,72,0.00,,FEW250,0.00,VWS V14.01,2013-07-25 22:20:00,
2013-07-25 17:21:00,70.7,61.6,29.95,North,360,1.0,2.0,73,0.00,,BKN250,0.00,VWS V14.01,2013-07-25 22:21:00,
2013-07-25 17:25:00,70.6,61.5,29.94,SE,145,1.0,6.0,73,0.00,,FEW250,0.00,VWS V14.01,2013-07-25 22:25:00,
2013-07-25 17:26:00,70.6,61.5,29.95,North,360,0.0,4.0,73,0.00,,BKN250,0.00,VWS V14.01,2013-07-25 22:26:00,
2013-07-25 17:30:00,70.7,61.6,29.95,SE,142,0.0,5.0,73,0.00,,FEW250,0.00,VWS V14.01,2013-07-25 22:30:00,
2013-07-25 17:31:00,70.7,61.6,29.95,North,360,0.0,5.0,73,0.00,,BKN250,0.00,VWS V14.01,2013-07-25 22:31:00,
2013-07-25 17:35:00,70.7,61.6,29.95,SSE,159,0.0,5.0,73,0.00,,FEW250,0.00,VWS V14.01,2013-07-25 22:35:00,
2013-07-25 17:36:00,70.7,61.6,29.95,ESE,114,2.0,5.0,73,0.00,,BKN250,0.00,VWS V14.01,2013-07-25 22:36:00,
2013-07-25 17:40:00,70.6,61.9,29.94,SE,140,0.0,8.0,74,0.00,,FEW250,0.00,VWS V14.01,2013-07-25 22:40:00,
2013-07-25 17:41:00,70.5,61.8,29.95,SSE,163,0.0,8.0,74,0.00,,BKN250,0.00,VWS V14.01,2013-07-25 22:41:00,
2013-07-25 17:45:00,70.5,61.8,29.95,SSE,151,1.0,2.0,74,0.00,,FEW250,0.00,VWS V14.01,2013-07-25 22:45:00,
2013-07-25 17:46:00,70.5,61.8,29.95,SSW,194,0.0,2.0,74,0.00,,BKN250,0.00,VWS V14.01,2013-07-25 22:46:00,
2013-07-25 17:50:00,70.5,62.2,29.95,SE,129,0.0,3.0,75,0.00,,FEW250,0.00,VWS V14.01,2013-07-25 22:50:00,
2013-07-25 17:51:00,70.5,61.8,29.95,SE,140,0.0,4.0,74,0.00,,BKN250,0.00,VWS V14.01,2013-07-25 22:51:00,
2013-07-25 17:55:00,70.5,62.2,29.94,SSE,148,0.0,4.0,75,0.00,,FEW250,0.00,VWS V14.01,2013-07-25 22:55:00,
2013-07-25 17:56:00,70.6,62.3,29.95,SSE,156,0.0,3.0,75,0.00,,BKN250,0.00,VWS V14.01,2013-07-25 22:56:00,
2013-07-25 18:00:00,70.7,62.4,29.95,SSE,163,4.0,8.0,75,0.00,,FEW250,0.00,VWS V14.01,2013-07-25 23:00:00,
2013-07-25 18:02:00,70.7,62.4,29.94,North,360,2.0,8.0,75,0.00,,BKN220,0.00,VWS V14.01,2013-07-25 23:02:00,
2013-07-25 18:05:00,70.7,62.4,29.94,North,360,0.0,2.0,75,0.00,,FEW250,0.00,VWS V14.01,2013-07-25 23:05:00,
2013-07-25 18:07:00,70.8,62.1,29.94,North,360,0.0,4.0,74,0.00,,BKN220,0.00,VWS V14.01,2013-07-25 23:07:00,
2013-07-25 18:10:00,70.8,62.1,29.94,North,360,1.0,7.0,74,0.00,,FEW250,0.00,VWS V14.01,2013-07-25 23:10:00,
2013-07-25 18:12:00,70.9,62.2,29.94,SSE,168,0.0,7.0,74,0.00,,BKN220,0.00,VWS V14.01,2013-07-25 23:12:00,
2013-07-25 18:15:00,71.0,62.3,29.94,North,360,2.0,5.0,74,0.00,,FEW250,0.00,VWS V14.01,2013-07-25 23:15:00,
2013-07-25 18:17:00,71.1,62.0,29.94,North,360,0.0,8.0,73,0.00,,BKN220,0.00,VWS V14.01,2013-07-25 23:17:00,
2013-07-25 18:20:00,71.2,62.1,29.94,South,178,0.0,8.0,73,0.00,,FEW250,0.00,VWS V14.01,2013-07-25 23:20:00,
2013-07-25 18:22:00,71.3,62.2,29.94,North,360,0.0,0.0,73,0.00,,BKN220,0.00,VWS V14.01,2013-07-25 23:22:00,
2013-07-25 18:25:00,71.4,62.3,29.94,SSE,165,0.0,5.0,73,0.00,,FEW250,0.00,VWS V14.01,2013-07-25 23:25:00,
2013-07-25 18:27:00,71.4,62.3,29.94,North,360,0.0,0.0,73,0.00,,BKN220,0.00,VWS V14.01,2013-07-25 23:27:00,
2013-07-25 18:30:00,71.5,62.4,29.94,North,360,0.0,0.0,73,0.00,,FEW250,0.00,VWS V14.01,2013-07-25 23:30:00,
2013-07-25 18:32:00,71.5,62.4,29.95,SSE,153,0.0,0.0,73,0.00,,BKN220,0.00,VWS V14.01,2013-07-25 23:32:00,
2013-07-25 18:35:00,71.5,62.4,29.95,SE,142,0.0,0.0,73,0.00,,FEW250,0.00,VWS V14.01,2013-07-25 23:35:00,
2013-07-25 18:37:00,71.3,62.6,29.95,ESE,121,0.0,0.0,74,0.00,,BKN220,0.00,VWS V14.01,2013-07-25 23:37:00,
2013-07-25 18:40:00,71.3,62.6,29.94,SSE,148,0.0,2.0,74,0.00,,CLR,0.00,VWS V14.01,2013-07-25 23:40:00,
2013-07-25 18:42:00,71.1,62.8,29.94,SSE,163,0.0,2.0,75,0.00,,BKN220,0.00,VWS V14.01,2013-07-25 23:42:00,
2013-07-25 18:45:00,71.0,62.7,29.94,SSE,163,0.0,0.0,75,0.00,,FEW250,0.00,VWS V14.01,2013-07-25 23:45:00,
2013-07-25 18:47:00,70.8,62.9,29.94,SE,140,0.0,0.0,76,0.00,,BKN220,0.00,VWS V14.01,2013-07-25 23:47:00,
2013-07-25 18:50:00,70.7,62.8,29.94,SSE,161,0.0,0.0,76,0.00,,FEW250,0.00,VWS V14.01,2013-07-25 23:50:00,
2013-07-25 18:52:00,70.6,62.7,29.94,SSE,163,0.0,0.0,76,0.00,,BKN220,0.00,VWS V14.01,2013-07-25 23:52:00,
2013-07-25 18:55:00,70.5,62.6,29.94,SSE,163,0.0,0.0,76,0.00,,FEW250,0.00,VWS V14.01,2013-07-25 23:55:00,
2013-07-25 18:58:00,70.5,62.6,29.94,South,170,0.0,0.0,76,0.00,,BKN220,0.00,VWS V14.01,2013-07-25 23:58:00,
2013-07-25 19:00:00,70.5,62.6,29.94,North,360,0.0,0.0,76,0.00,,FEW250,0.00,VWS V14.01,2013-07-26 00:00:00,
2013-07-25 19:03:00,70.4,62.5,29.94,SSE,166,0.0,1.0,76,0.00,,BKN200,0.00,VWS V14.01,2013-07-26 00:03:00,
2013-07-25 19:05:00,70.5,62.6,29.94,SSE,166,0.0,1.0,76,0.00,,FEW250,0.00,VWS V14.01,2013-07-26 00:05:00,
2013-07-25 19:08:00,70.5,62.2,29.94,ESE,113,0.0,0.0,75,0.00,,BKN200,0.00,VWS V14.01,2013-07-26 00:08:00,
2013-07-25 19:10:00,70.5,62.6,29.94,ESE,113,0.0,0.0,76,0.00,,FEW250,0.00,VWS V14.01,2013-07-26 00:10:00,
2013-07-25 19:13:00,70.5,62.6,29.94,SE,137,0.0,0.0,76,0.00,,BKN200,0.00,VWS V14.01,2013-07-26 00:13:00,
2013-07-25 19:15:00,70.5,62.6,29.93,SE,138,0.0,0.0,76,0.00,,FEW250,0.00,VWS V14.01,2013-07-26 00:15:00,
2013-07-25 19:18:00,70.3,62.8,29.93,SE,126,0.0,0.0,77,0.00,,BKN200,0.00,VWS V14.01,2013-07-26 00:18:00,
2013-07-25 19:20:00,70.3,62.8,29.93,SE,126,0.0,0.0,77,0.00,,FEW250,0.00,VWS V14.01,2013-07-26 00:20:00,
2013-07-25 19:23:00,70.2,62.7,29.93,SE,126,0.0,0.0,77,0.00,,BKN200,0.00,VWS V14.01,2013-07-26 00:23:00,
2013-07-25 19:25:00,70.2,62.3,29.93,SSE,148,0.0,0.0,76,0.00,,CLR,0.00,VWS V14.01,2013-07-26 00:25:00,
2013-07-25 19:28:00,70.1,62.2,29.93,SSE,148,0.0,0.0,76,0.00,,BKN200,0.00,VWS V14.01,2013-07-26 00:28:00,
2013-07-25 19:30:00,70.1,62.2,29.93,SSE,148,0.0,0.0,76,0.00,,FEW250,0.00,VWS V14.01,2013-07-26 00:30:00,
2013-07-25 19:33:00,70.1,62.6,29.93,SSE,148,0.0,0.0,77,0.00,,BKN200,0.00,VWS V14.01,2013-07-26 00:33:00,
2013-07-25 19:35:00,70.1,62.6,29.93,SSE,148,0.0,0.0,77,0.00,,FEW250,0.00,VWS V14.01,2013-07-26 00:35:00,
2013-07-25 19:38:00,70.0,62.5,29.93,SSE,148,0.0,0.0,77,0.00,,BKN200,0.00,VWS V14.01,2013-07-26 00:38:00,
2013-07-25 19:40:00,70.0,62.5,29.93,SSE,148,0.0,0.0,77,0.00,,FEW250,0.00,VWS V14.01,2013-07-26 00:40:00,
2013-07-25 19:43:00,69.9,62.4,29.93,SSE,148,0.0,0.0,77,0.00,,BKN200,0.00,VWS V14.01,2013-07-26 00:43:00,
2013-07-25 19:45:00,69.9,62.4,29.93,SSE,148,0.0,0.0,77,0.00,,FEW250,0.00,VWS V14.01,2013-07-26 00:45:00,
2013-07-25 19:49:00,69.8,62.6,29.93,SSE,148,0.0,0.0,78,0.00,,BKN200,0.00,VWS V14.01,2013-07-26 00:49:00,
2013-07-25 19:50:00,69.8,62.6,29.93,SSE,148,0.0,0.0,78,0.00,,FEW250,0.00,VWS V14.01,2013-07-26 00:50:00,
2013-07-25 19:54:00,69.7,62.5,29.93,SSE,159,0.0,0.0,78,0.00,,BKN200,0.00,VWS V14.01,2013-07-26 00:54:00,
2013-07-25 19:55:00,69.7,62.5,29.93,SSE,159,0.0,0.0,78,0.00,,FEW250,0.00,VWS V14.01,2013-07-26 00:55:00,
2013-07-25 19:59:00,69.5,62.0,29.93,SSE,164,0.0,0.0,77,0.00,,BKN200,0.00,VWS V14.01,2013-07-26 00:59:00,
2013-07-25 20:00:00,69.5,62.0,29.93,SSE,164,0.0,0.0,77,0.00,,FEW250,0.00,VWS V14.01,2013-07-26 01:00:00,
2013-07-25 20:04:00,69.5,62.0,29.93,SSE,164,0.0,0.0,77,0.00,,BKN250,0.00,VWS V14.01,2013-07-26 01:04:00,
2013-07-25 20:05:00,69.5,62.0,29.93,SSE,164,0.0,0.0,77,0.00,,FEW250,0.00,VWS V14.01,2013-07-26 01:05:00,
2013-07-25 20:09:00,69.5,61.6,29.93,SSE,164,0.0,0.0,76,0.00,,BKN250,0.00,VWS V14.01,2013-07-26 01:09:00,
2013-07-25 20:10:00,69.5,61.6,29.93,SSE,164,0.0,0.0,76,0.00,,FEW250,0.00,VWS V14.01,2013-07-26 01:10:00,
2013-07-25 20:14:00,69.5,61.6,29.93,SSW,196,0.0,0.0,76,0.00,,BKN250,0.00,VWS V14.01,2013-07-26 01:14:00,
2013-07-25 20:15:00,69.5,61.6,29.93,SSW,196,0.0,0.0,76,0.00,,FEW250,0.00,VWS V14.01,2013-07-26 01:15:00,
2013-07-25 20:19:00,69.9,61.6,29.93,North,360,0.0,5.0,75,0.00,,BKN250,0.00,VWS V14.01,2013-07-26 01:19:00,
2013-07-25 20:20:00,69.9,61.6,29.93,North,360,0.0,5.0,75,0.00,,FEW250,0.00,VWS V14.01,2013-07-26 01:20:00,
2013-07-25 20:24:00,70.2,61.5,29.93,North,360,0.0,5.0,74,0.00,,BKN250,0.00,VWS V14.01,2013-07-26 01:24:00,
2013-07-25 20:25:00,70.2,61.5,29.93,North,360,5.0,5.0,74,0.00,,FEW250,0.00,VWS V14.01,2013-07-26 01:25:00,
2013-07-25 20:29:00,70.5,61.4,29.93,North,360,2.0,9.0,73,0.00,,BKN250,0.00,VWS V14.01,2013-07-26 01:29:00,
2013-07-25 20:30:00,70.5,61.4,29.93,North,360,2.0,9.0,73,0.00,,FEW250,0.00,VWS V14.01,2013-07-26 01:30:00,
2013-07-25 20:34:00,70.6,61.5,29.93,North,360,0.0,0.0,73,0.00,,BKN250,0.00,VWS V14.01,2013-07-26 01:34:00,
2013-07-25 20:35:00,70.6,61.5,29.93,North,360,0.0,0.0,73,0.00,,FEW250,0.00,VWS V14.01,2013-07-26 01:35:00,
2013-07-25 20:39:00,70.7,61.6,29.93,North,360,7.0,9.0,73,0.00,,BKN250,0.00,VWS V14.01,2013-07-26 01:39:00,
2013-07-25 20:40:00,70.7,61.6,29.93,North,360,7.0,9.0,73,0.00,,FEW250,0.00,VWS V14.01,2013-07-26 01:40:00,
2013-07-25 20:44:00,70.7,61.6,29.92,North,360,0.0,7.0,73,0.00,,BKN250,0.00,VWS V14.01,2013-07-26 01:44:00,
2013-07-25 20:45:00,70.7,61.6,29.92,North,360,0.0,7.0,73,0.00,,FEW250,0.00,VWS V14.01,2013-07-26 01:45:00,
2013-07-25 20:49:00,70.7,61.6,29.93,North,360,0.0,6.0,73,0.00,,BKN250,0.00,VWS V14.01,2013-07-26 01:49:00,
2013-07-25 20:50:00,70.7,61.6,29.93,North,360,0.0,6.0,73,0.00,,FEW250,0.00,VWS V14.01,2013-07-26 01:50:00,
2013-07-25 20:54:00,70.7,61.6,29.93,North,360,0.0,7.0,73,0.00,,BKN250,0.00,VWS V14.01,2013-07-26 01:54:00,
2013-07-25 20:55:00,70.7,61.6,29.93,North,360,0.0,7.0,73,0.00,,FEW250,0.00,VWS V14.01,2013-07-26 01:55:00,
2013-07-25 20:59:00,70.7,61.2,29.93,North,360,6.0,11.0,72,0.00,,BKN250,0.00,VWS V14.01,2013-07-26 01:59:00,
2013-07-25 21:00:00,70.7,61.2,29.93,North,360,6.0,11.0,72,0.00,,FEW250,0.00,VWS V14.01,2013-07-26 02:00:00,
2013-07-25 21:04:00,70.8,61.3,29.93,SSW,205,6.0,14.0,72,0.00,,BKN250,0.00,VWS V14.01,2013-07-26 02:04:00,
2013-07-25 21:05:00,70.8,61.3,29.93,SSW,205,6.0,14.0,72,0.00,,FEW250,0.00,VWS V14.01,2013-07-26 02:05:00,
2013-07-25 21:09:00,70.9,61.4,29.93,North,360,13.0,13.0,72,0.00,,BKN250,0.00,VWS V14.01,2013-07-26 02:09:00,
2013-07-25 21:10:00,70.9,61.4,29.93,North,360,13.0,13.0,72,0.00,,FEW250,0.00,VWS V14.01,2013-07-26 02:10:00,
2013-07-25 21:14:00,70.9,61.4,29.93,North,360,4.0,14.0,72,0.00,,BKN250,0.00,VWS V14.01,2013-07-26 02:14:00,
2013-07-25 21:15:00,70.9,61.4,29.93,North,360,4.0,14.0,72,0.00,,FEW250,0.00,VWS V14.01,2013-07-26 02:15:00,
2013-07-25 21:19:00,71.0,61.1,29.94,North,360,4.0,11.0,71,0.00,,BKN250,0.00,VWS V14.01,2013-07-26 02:19:00,
2013-07-25 21:20:00,71.0,61.1,29.94,North,360,4.0,11.0,71,0.00,,FEW250,0.00,VWS V14.01,2013-07-26 02:20:00,
2013-07-25 21:24:00,71.0,61.1,29.93,North,360,8.0,13.0,71,0.00,,BKN250,0.00,VWS V14.01,2013-07-26 02:24:00,
2013-07-25 21:25:00,71.0,61.1,29.93,North,360,8.0,13.0,71,0.00,,FEW250,0.00,VWS V14.01,2013-07-26 02:25:00,
2013-07-25 21:29:00,71.0,61.1,29.93,South,169,3.0,11.0,71,0.00,,BKN250,0.00,VWS V14.01,2013-07-26 02:29:00,
2013-07-25 21:30:00,71.0,61.1,29.93,South,169,3.0,11.0,71,0.00,,FEW250,0.00,VWS V14.01,2013-07-26 02:30:00,
2013-07-25 21:34:00,71.0,61.1,29.94,North,360,4.0,12.0,71,0.00,,BKN250,0.00,VWS V14.01,2013-07-26 02:34:00,
2013-07-25 21:35:00,71.0,61.1,29.94,North,360,4.0,12.0,71,0.00,,FEW250,0.00,VWS V14.01,2013-07-26 02:35:00,
2013-07-25 21:39:00,71.0,61.1,29.94,SSW,213,8.0,9.0,71,0.00,,BKN250,0.00,VWS V14.01,2013-07-26 02:39:00,
2013-07-25 21:40:00,71.0,61.1,29.94,SSW,213,8.0,9.0,71,0.00,,FEW250,0.00,VWS V14.01,2013-07-26 02:40:00,
2013-07-25 21:44:00,71.0,61.1,29.94,South,173,0.0,12.0,71,0.00,,BKN250,0.00,VWS V14.01,2013-07-26 02:44:00,
2013-07-25 21:45:00,71.0,61.1,29.94,South,173,0.0,12.0,71,0.00,,FEW250,0.00,VWS V14.01,2013-07-26 02:45:00,
2013-07-25 21:49:00,70.9,61.4,29.93,SSE,159,0.0,12.0,72,0.00,,BKN250,0.00,VWS V14.01,2013-07-26 02:49:00,
2013-07-25 21:50:00,70.9,61.4,29.93,SSE,159,0.0,12.0,72,0.00,,FEW250,0.00,VWS V14.01,2013-07-26 02:50:00,
2013-07-25 21:54:00,70.9,61.4,29.94,North,360,6.0,11.0,72,0.00,,BKN250,0.00,VWS V14.01,2013-07-26 02:54:00,
2013-07-25 21:55:00,70.9,61.4,29.94,North,360,6.0,11.0,72,0.00,,FEW250,0.00,VWS V14.01,2013-07-26 02:55:00,
2013-07-25 21:59:00,70.8,61.3,29.93,South,173,11.0,12.0,72,0.00,,BKN250,0.00,VWS V14.01,2013-07-26 02:59:00,
2013-07-25 22:00:00,70.8,61.3,29.93,South,173,11.0,12.0,72,0.00,,FEW250,0.00,VWS V14.01,2013-07-26 03:00:00,
2013-07-25 22:04:00,70.8,61.3,29.93,North,360,5.0,10.0,72,0.00,,OVC240,0.00,VWS V14.01,2013-07-26 03:04:00,
2013-07-25 22:05:00,70.8,61.3,29.93,SW,217,1.0,10.0,72,0.00,,FEW250,0.00,VWS V14.01,2013-07-26 03:05:00,
2013-07-25 22:09:00,70.7,61.6,29.93,North,360,6.0,11.0,73,0.00,,OVC240,0.00,VWS V14.01,2013-07-26 03:09:00,
2013-07-25 22:10:00,70.8,61.3,29.93,North,360,8.0,11.0,72,0.00,,FEW250,0.00,VWS V14.01,2013-07-26 03:10:00,
2013-07-25 22:15:00,70.7,61.6,29.93,North,360,4.0,10.0,73,0.00,,OVC240,0.00,VWS V14.01,2013-07-26 03:15:00,
2013-07-25 22:20:00,70.8,61.7,29.92,SE,146,3.0,11.0,73,0.00,,OVC240,0.00,VWS V14.01,2013-07-26 03:20:00,
2013-07-25 22:25:00,70.8,61.7,29.92,North,360,1.0,10.0,73,0.00,,OVC240,0.00,VWS V14.01,2013-07-26 03:25:00,
2013-07-25 22:30:00,70.9,61.8,29.92,North,360,3.0,11.0,73,0.00,,OVC240,0.00,VWS V14.01,2013-07-26 03:30:00,
2013-07-25 22:35:00,70.9,61.4,29.91,SSW,204,6.0,10.0,72,0.00,,OVC240,0.00,VWS V14.01,2013-07-26 03:35:00,
2013-07-25 22:40:00,70.9,61.4,29.91,SSW,196,3.0,9.0,72,0.00,,OVC240,0.00,VWS V14.01,2013-07-26 03:40:00,
2013-07-25 22:45:00,70.7,61.6,29.91,North,360,14.0,15.0,73,0.00,,OVC240,0.00,VWS V14.01,2013-07-26 03:45:00,
2013-07-25 22:50:00,70.6,61.5,29.91,North,360,5.0,14.0,73,0.00,,OVC240,0.00,VWS V14.01,2013-07-26 03:50:00,
2013-07-25 22:55:00,70.5,61.4,29.90,SSE,159,8.0,15.0,73,0.00,,OVC240,0.00,VWS V14.01,2013-07-26 03:55:00,
2013-07-25 23:00:00,70.6,61.5,29.90,North,360,9.0,16.0,73,0.00,,OVC240,0.00,VWS V14.01,2013-07-26 04:00:00,
2013-07-25 23:02:00,70.6,61.5,29.90,North,360,13.0,16.0,73,0.00,,OVC240,0.00,VWS V14.01,2013-07-26 04:02:00,
2013-07-25 23:03:00,70.6,61.5,29.90,South,170,2.0,16.0,73,0.00,,OVC240,0.00,VWS V14.01,2013-07-26 04:03:00,
2013-07-25 23:04:00,70.6,61.5,29.90,North,360,8.0,16.0,73,0.00,,OVC240,0.00,VWS V14.01,2013-07-26 04:04:00,
2013-07-25 23:05:00,70.7,61.6,29.90,SW,216,7.0,15.0,73,0.00,,OVC240,0.00,VWS V14.01,2013-07-26 04:05:00,
2013-07-25 23:10:00,70.7,61.6,29.90,North,360,13.0,14.0,73,0.00,,OVC240,0.00,VWS V14.01,2013-07-26 04:10:00,
2013-07-25 23:14:00,70.8,61.7,29.90,North,360,2.0,13.0,73,0.00,,OVC240,0.00,VWS V14.01,2013-07-26 04:14:00,
2013-07-25 23:15:00,70.8,61.7,29.90,North,360,4.0,12.0,73,0.00,,FEW250,0.00,VWS V14.01,2013-07-26 04:15:00,
2013-07-25 23:19:00,70.9,61.4,29.90,North,360,11.0,11.0,72,0.00,,OVC240,0.00,VWS V14.01,2013-07-26 04:19:00,
2013-07-25 23:20:00,71.0,61.5,29.90,North,360,5.0,11.0,72,0.00,,FEW250,0.00,VWS V14.01,2013-07-26 04:20:00,
2013-07-25 23:24:00,71.1,61.6,29.89,North,360,8.0,12.0,72,0.00,,OVC240,0.00,VWS V14.01,2013-07-26 04:24:00,
2013-07-25 23:25:00,71.1,61.6,29.89,North,360,4.0,12.0,72,0.00,,FEW250,0.00,VWS V14.01,2013-07-26 04:25:00,
2013-07-25 23:29:00,71.3,61.4,29.89,North,360,0.0,10.0,71,0.00,,OVC240,0.00,VWS V14.01,2013-07-26 04:29:00,
2013-07-25 23:30:00,71.3,61.4,29.90,North,360,0.0,10.0,71,0.00,,FEW250,0.00,VWS V14.01,2013-07-26 04:30:00,
2013-07-25 23:34:00,71.4,61.5,29.90,North,360,4.0,12.0,71,0.00,,OVC240,0.00,VWS V14.01,2013-07-26 04:34:00,
2013-07-25 23:35:00,71.4,61.5,29.90,North,360,7.0,12.0,71,0.00,,FEW250,0.00,VWS V14.01,2013-07-26 04:35:00,
2013-07-25 23:39:00,71.5,61.6,29.90,SSW,205,2.0,9.0,71,0.00,,OVC240,0.00,VWS V14.01,2013-07-26 04:39:00,
2013-07-25 23:40:00,71.5,61.6,29.90,SSW,205,2.0,9.0,71,0.00,,FEW250,0.00,VWS V14.01,2013-07-26 04:40:00,
2013-07-25 23:44:00,71.6,61.3,29.90,North,360,1.0,10.0,70,0.00,,OVC240,0.00,VWS V14.01,2013-07-26 04:44:00,
2013-07-25 23:45:00,71.6,61.3,29.90,North,360,1.0,10.0,70,0.00,,FEW250,0.00,VWS V14.01,2013-07-26 04:45:00,
2013-07-25 23:49:00,71.6,61.3,29.89,SSE,163,3.0,10.0,70,0.00,,OVC240,0.00,VWS V14.01,2013-07-26 04:49:00,
2013-07-25 23:50:00,71.6,61.3,29.89,SSE,163,3.0,10.0,70,0.00,,FEW250,0.00,VWS V14.01,2013-07-26 04:50:00,
2013-07-25 23:54:00,71.6,61.3,29.89,North,360,0.0,9.0,70,0.00,,OVC240,0.00,VWS V14.01,2013-07-26 04:54:00,
2013-07-25 23:55:00,71.6,61.3,29.89,North,360,0.0,9.0,70,0.00,,FEW250,0.00,VWS V14.01,2013-07-26 04:55:00,
2013-07-25 23:59:00,71.6,61.7,29.89,North,360,0.0,6.0,71,0.00,,OVC240,0.00,VWS V14.01,2013-07-26 04:59:00,